Regional Weather Roundup
Issued by NWS Green Bay, WI

Home | Current Version | Previous Version | Text Only | Print | Product List | Glossary On
Versions: 1 2 3 4 5 6 7 8 9 10 11 12 13 14 15 16 17 18 19 20 21 22 23 24 25 26 27 28 29 30 31 32 33 34 35 36 37 38 39 40 41 42 43 44 45 46 47 48 49 50
000
ASUS43 KGRB 281810
RWRGRB

NORTH-CENTRAL AND NORTHEAST WISCONSIN REGIONAL WEATHER ROUNDUP
NATIONAL WEATHER SERVICE GREEN BAY WI
1200 PM CST FRI NOV 28 2014

WIZ005-009-010>012-018-019-281900-
NORTH CENTRAL WISCONSIN

CITY           SKY/WX    TMP DP  RH WIND       PRES   REMARKS
IRONWOOD       CLOUDY    12  10  92 SE5       29.95F WCI   4
MANITOWISH WTR LGT SNOW  11   9  90 S8        29.95F WCI  -1
ARBOR VITAE    LGT SNOW  14  11  87 SE6       29.95F WCI   5
EAGLE RIVER    LGT SNOW  12   7  79 CALM      29.97F
LAND O LAKES   LGT SNOW  13   9  84 S5        29.98F WCI   5
RHINELANDER    LGT SNOW  12   8  84 SE7       29.97F FOG     WCI   1
PHILLIPS       LGT SNOW  12   8  85 SE7       29.94F WCI   1
ANTIGO         LGT SNOW  11   8  85 SE8       29.99F WCI   0
TOMAHAWK       LGT SNOW  13   9  84 CALM      29.98F
MERRILL        LGT SNOW  13   9  84 SE3       29.99F
$$

WIZ013-073-281900-
NORTHEAST WISCONSIN

CITY           SKY/WX    TMP DP  RH WIND       PRES   REMARKS
IRON MOUNTAIN  LGT SNOW  12   7  80 SE6       30.05F VSB 1   WCI   3
MARINETTE      CLOUDY    18  10  73 CALM      30.10F
OCONTO         CLOUDY    18  15  87 SE5       30.10F
$$

WIZ017-030-035>037-045-281900-
CENTRAL WISCONSIN

CITY           SKY/WX    TMP DP  RH WIND       PRES   REMARKS
MEDFORD        LGT SNOW  14   9  82 SE9       29.96F WCI   2
WAUSAU         LGT SNOW  14  10  84 SE8       29.98F FOG     WCI   3
MOSINEE        LGT SNOW  16  12  86 SE10      30.00F WCI   3
MARSHFIELD     CLOUDY    17  11  77 SE9       29.97F WCI   6
WISC RAPIDS    CLOUDY    18  11  74 SE6       30.02F WCI  10
STEVENS POINT  FLURRIES  15  11  84 SE7       30.01F WCI   5
WAUPACA        CLOUDY    20  14  78 E9        30.06F WCI  10
SHAWANO        CLOUDY    18  13  79 SE7       30.09F WCI   9
CLINTONVILLE   FLURRIES  18  12  79 SE6       30.07F WCI   9
$$

WIZ038-039-048-051-281900-
FOX VALLEY

CITY           SKY/WX    TMP DP  RH WIND       PRES   REMARKS
NWS GREEN BAY  CLOUDY    19  14  81 S10       30.09F WCI   7
APPLETON       CLOUDY    19  14  79 SE12      30.07F WCI   7
OSHKOSH        CLOUDY    20  14  77 MISG      30.05F
FOND DU LAC    CLOUDY    21  14  74 SE10      30.05F WCI  10
$$

WIZ022-050-052-281900-
EAST CENTRAL WISCONSIN

CITY           SKY/WX    TMP DP  RH WIND       PRES   REMARKS
STURGEON BAY   CLOUDY    18  12  79 S3        30.10F
MANITOWOC      FLURRIES  23  20  88 S5        30.09F
SHEBOYGAN      CLOUDY    22  17  81 S12       30.08F
$$

LMZ563-521-522-541>543-281900-
LAKESHORE

STATION/POSITION TIME  TEMP    WIND        PRES    VSBY  WAVE
                       AIR SEA DIR/SP/G                  HT/PER
                 (UTC) (F)     (DEG/KT/KT) (MB)    (MI)  (FT/S)
SHEBOYGAN LKSHOR 1800   24 34  210/ 11/ 12 1020.1F
KEWAUNEE LKSHORE 1800   19     210/  2/  5 1018.8F
ALGOMA MARINA    1700          250/  8/  9   N/A
NORTHPORT PIER   1800   20     190/  3/  6 1020.7F
N MID LAKE BUOY  1800   25 42  230/ 14/ 19 1021.2F         2/ 3
CHAMBERS ISLAND  1800   19     180/  4/  9 1020.3F
MENOMINEE LKSHOR 1800   19     190/  5/  9 1020.3F
$$


USA.gov is the U.S. government's official web portal to all federal, state and local government web resources and services.